Torna al catalogo

PALAPA B1 R/B

PAM-D

AttivoHEO
NORAD 14136·ROCKET BODY·🇺🇸 United States

Lanciato Jun 18, 1983 da Cape Canaveral Space Force Station

Loading…

Prossimi Passaggi (prossime 24 ore)

TLE

AggiornatoSource: Space-Track

Epoca: Sep 12, 2026, 10:56 UTC

1 14136U 83059E   26255.45605634  .00001184  00000-0  10588-2 0  9991
2 14136  25.7745   8.0492 6922112 358.8373   0.0644  2.71343306349380

Traccia PALAPA B1 R/B in tempo reale con AllMySat

Download on the App Store